Back to catalog

STARLINK-11423

AliveCommunicationsVLEO
NORAD 61950·PAYLOAD·🇺🇸 United States

Launched Nov 14, 2024 from Vandenberg Space Force Base

Loading…

Next Passes (next 24 hours)

TLE

FreshSource: CelesTrak SupGP

Epoch: Sep 14, 2026, 20:52 UTC

1 61950C 24209M   26257.86993056 -.00001576  00000+0 -12978-4 0  2574
2 61950  53.1567 158.6734 0001091  91.9283 166.2609 15.69719695    16

Track STARLINK-11423 in real time with AllMySat

Download on the App Store